This demonstration page uses our WeatherBlox Daily Observations layout. Learn more.

Left ArrowRight Arrow

Hourly Observations for November 25, 2022

Temp ( °F °C ) Dew Point ( °F °C ) Humidity (%) Winds ( mph kmh ) Pressure ( in mb ) Visibility ( mi km ) Precip ( " mm )
12:53 am 00:53 Clear 33 0.6 28 -2.2 81 81 NNW 7 11 30.35 1028 10 16 0.00 0.00
1:53 am 01:53 Mostly Clear 36 2.2 30 -1.1 79 79 N 12 19 30.35 1028 10 16 0.00 0.00
2:53 am 02:53 Clear 36 2.2 29 -1.7 75 75 NNW 10 17 30.35 1028 10 16 0.00 0.00
3:53 am 03:53 Mostly Clear 35 1.7 29 -1.7 78 78 N 13 20 30.34 1028 10 16 0.00 0.00
4:53 am 04:53 Mostly Clear 35 1.7 29 -1.7 78 78 N 12 19 30.34 1028 10 16 0.00 0.00
5:53 am 05:53 Partly Cloudy 34 1.1 29 -1.7 82 82 NNW 12 19 30.36 1028 10 16 0.00 0.00
6:53 am 06:53 Mostly Clear 33 0.6 28 -2.2 81 81 N 14 22 30.37 1029 10 16 0.00 0.00
7:53 am 07:53 Sunny 34 1.1 28 -2.2 79 79 N 12 19 30.38 1029 10 16 0.00 0.00
8:53 am 08:53 Sunny 37 2.8 29 -1.7 72 72 N 10 17 30.40 1029 10 16 0.00 0.00
9:53 am 09:53 Sunny 41 5 31 -0.6 67 67 NNE 10 17 30.40 1029 10 16 0.00 0.00
10:53 am 10:53 Sunny 46 7.8 32 0 58 58 NNE 5 7 30.39 1029 10 16 0.00 0.00
11:53 am 11:53 Sunny 50 10 33 0.6 52 52 ENE 8 13 30.33 1027 10 16 0.00 0.00
12:53 pm 12:53 Sunny 53 11.7 33 0.6 46 46 NNE 7 11 30.32 1027 10 16 0.00 0.00
1:53 pm 13:53 Sunny 54 12.2 33 0.6 45 45 NNE 6 9 30.28 1026 10 16 0.00 0.00
2:53 pm 14:53 Sunny 56 13.3 32 0 40 40 ENE 7 11 30.26 1025 10 16 0.00 0.00
3:53 pm 15:53 Mostly Sunny 55 12.8 32 0 41 41 NE 6 9 30.25 1024 10 16 0.00 0.00
4:53 pm 16:53 Partly Cloudy 52 11.1 31 -0.6 44 44 NNE 3 6 30.24 1024 10 16 0.00 0.00
5:53 pm 17:53 Hazy 45 7.2 31 -0.6 58 58 Calm 30.24 1024 5 8 0.00 0.00
6:53 pm 18:53 Partly Cloudy 43 6.1 31 -0.6 62 62 NW 3 6 30.24 1024 10 16 0.00 0.00
7:53 pm 19:53 Partly Cloudy 38 3.3 30 -1.1 73 73 N 6 9 30.23 1024 10 16 0.00 0.00
8:53 pm 20:53 Partly Cloudy 35 1.7 28 -2.2 75 75 NW 3 6 30.23 1024 10 16 0.00 0.00
9:53 pm 21:53 Partly Cloudy 35 1.7 28 -2.2 75 75 Calm 30.22 1023 10 16 0.00 0.00
10:53 pm 22:53 Partly Cloudy 33 0.6 27 -2.8 78 78 Calm 30.21 1023 10 16 0.00 0.00
11:53 pm 23:53 Partly Cloudy 31 -0.6 27 -2.8 85 85 Calm 30.21 1023 10 16 0.00 0.00

Powered by AerisWeather